Weather History for Wright-Patt AFB, OH

Change the Weather History Date:

Sunday, November 18, 2012

  Actual Average Record
Temperature  
Mean Temperature 43 °F -  
Max Temperature 59 °F 49 °F 68 °F (2004)
Min Temperature 27 °F 32 °F 10 °F (2014)
Degree Days  
Heating Degree Days 22    
Moisture  
Dew Point 27 °F    
Average Humidity 64    
Maximum Humidity 92    
Minimum Humidity 25    
Precipitation  
Precipitation 0.00 in - - ()
Sea Level Pressure  
Sea Level Pressure 30.46 in    
Wind  
Wind Speed 1 mph (East)    
Max Wind Speed 8 mph    
Max Gust Speed -    
Visibility 10 miles    
Events      
Averages and records for this station are not official NWS values.
T = Trace of Precipitation, MM = Missing Value Source: NWS Daily Summary

Daily Weather History Graph

Daily Weather History Graph

Search for Another Location

Airport:

Trip Planner

Search our weather history database for the weather conditions in past years. The results will help you decide how hot, cold, wet, or windy it might be!

Date:

Astronomy

Nov. 18, 2012 Rise Set
Actual Time 7:24 AM EST 5:17 PM EST
Civil Twilight 6:55 AM EST 5:46 PM EST
Nautical Twilight 6:22 AM EST 6:19 PM EST
Astronomical Twilight 5:50 AM EST 6:51 PM EST
Moon 11:51 AM EST (11/18) 10:36 PM EST (11/18)
Length of Visible Light 10h 51m
Length of Day
9h 52m
Waxing Crescent, 30% of the Moon is Illuminated
Nov 18
Waxing Crescent
Nov 20
First Quarter
Nov 28
Full
Dec 6
Last Quarter
Dec 13
New

Hourly Weather History & Observations

Time (EST) Temp. Windchill Dew Point Humidity Pressure Visibility Wind Dir Wind Speed Gust Speed Precip Events Conditions
12:55 AM 29.5 °F - 25.9 °F 86% 30.49 in 10.0 mi Calm Calm - N/A   Clear
1:55 AM 30.6 °F - 27.1 °F 87% 30.48 in 10.0 mi Calm Calm - N/A   Clear
2:55 AM 28.4 °F - 25.7 °F 90% 30.49 in 10.0 mi Calm Calm - N/A   Clear
3:55 AM 30.2 °F - 27.5 °F 90% 30.47 in 10.0 mi Calm Calm - N/A   Clear
4:55 AM 28.8 °F - 26.6 °F 92% 30.47 in 10.0 mi Calm Calm - N/A   Clear
5:55 AM 27.0 °F - 24.8 °F 92% 30.49 in 10.0 mi Calm Calm - N/A   Clear
6:55 AM 29.3 °F - 26.6 °F 90% 30.49 in 10.0 mi Calm Calm - N/A   Clear
7:55 AM 27.3 °F - 24.4 °F 89% 30.50 in 10.0 mi Calm Calm - N/A   Partly Cloudy
8:55 AM 32.9 °F - 29.1 °F 86% 30.51 in 10.0 mi Calm Calm - N/A   Partly Cloudy
9:55 AM 41.5 °F 39.6 °F 30.6 °F 65% 30.50 in 10.0 mi ENE 3.5 mph - N/A   Clear
10:55 AM 47.8 °F - 30.9 °F 52% 30.50 in 10.0 mi Calm Calm - N/A   Partly Cloudy
11:55 AM 53.4 °F - 29.7 °F 40% 30.47 in 10.0 mi Variable 4.6 mph - N/A   Partly Cloudy
12:55 PM 56.1 °F - 26.6 °F 32% 30.44 in 10.0 mi East 5.8 mph - N/A   Scattered Clouds
1:55 PM 57.9 °F - 23.7 °F 27% 30.42 in 10.0 mi Calm Calm - N/A   Scattered Clouds
2:55 PM 58.6 °F - 24.4 °F 27% 30.40 in 10.0 mi East 5.8 mph - N/A   Scattered Clouds
3:55 PM 59.2 °F - 23.2 °F 25% 30.40 in 10.0 mi East 5.8 mph - N/A   Scattered Clouds
4:55 PM 54.5 °F - 25.0 °F 32% 30.42 in 10.0 mi East 8.1 mph - N/A   Scattered Clouds
5:55 PM 48.7 °F - 24.4 °F 39% 30.42 in 10.0 mi East 6.9 mph - N/A   Scattered Clouds
6:55 PM 45.7 °F 43.4 °F 25.0 °F 44% 30.43 in 10.0 mi NE 4.6 mph - N/A   Scattered Clouds
7:55 PM 41.5 °F - 26.1 °F 54% 30.44 in 10.0 mi Calm Calm - N/A   Scattered Clouds
9:55 PM 34.9 °F - 29.3 °F 80% 30.43 in 10.0 mi Calm Calm - N/A   Partly Cloudy
10:55 PM 32.7 °F - 27.1 °F 80% 30.42 in 10.0 mi Calm Calm - N/A   Clear
11:55 PM 32.7 °F - 26.4 °F 78% 30.41 in 10.0 mi Calm Calm - N/A   Clear